This demonstration page uses our WeatherBlox Daily Observations layout. Learn more.

Left ArrowRight Arrow

Hourly Observations for February 25, 2015

Temp ( °F °C ) Dew Point ( °F °C ) Humidity (%) Winds ( mph kmh ) Pressure ( in mb ) Visibility ( mi km ) Precip ( " mm )
12:51 am 00:51 Clear 39 3.9 35 1.7 86 86 NW 10 17 30.12 1020 10 16 N/A
1:51 am 01:51 Clear 40 4.4 33 0.6 77 77 NNW 9 15 30.10 1019 10 16 N/A
2:51 am 02:51 Clear 36 2.2 32 undefined 86 86 NW 8 13 30.11 1020 10 16 N/A
3:51 am 03:51 Clear 36 2.2 32 undefined 86 86 WNW 7 11 30.11 1020 10 16 N/A
4:51 am 04:51 Clear 36 2.2 32 undefined 86 86 N 7 11 30.11 1020 10 16 N/A
5:51 am 05:51 Clear 34 1.1 31 -0.6 89 89 SE 6 9 30.12 1020 10 16 N/A
6:51 am 06:51 Sunny 32 undefined 30 -1.1 92 92 E 6 9 30.15 1021 10 16 N/A
7:51 am 07:51 Sunny 38 3.3 34 1.1 86 86 E 3 6 30.14 1021 10 16 N/A
8:51 am 08:51 Sunny 41 5 34 1.1 76 76 N N/A 30.14 1021 10 16 N/A
9:51 am 09:51 Sunny 46 7.8 34 1.1 63 63 N N/A 30.13 1020 10 16 N/A
10:51 am 10:51 Sunny 49 9.4 35 1.7 59 59 WNW 6 9 30.09 1019 10 16 N/A
11:51 am 11:51 Sunny 55 12.8 29 -1.7 37 37 WNW 16 26 30.04 1017 10 16 N/A
12:51 pm 12:51 Sunny 59 15 27 -2.8 29 29 WNW 20 31 29.97 1015 10 16 N/A
1:51 pm 13:51 Sunny 62 16.7 26 -3.3 25 25 NW 16 26 29.92 1013 10 16 N/A
2:51 pm 14:51 Sunny 64 17.8 27 -2.8 25 25 WNW 16 26 29.90 1012 10 16 N/A
3:51 pm 15:51 Sunny 64 17.8 26 -3.3 24 24 NW 21 33 29.87 1011 10 16 N/A
4:51 pm 16:51 Sunny 64 17.8 27 -2.8 25 25 WNW 20 31 29.86 1011 10 16 N/A
5:51 pm 17:51 Sunny 61 16.1 29 -1.7 30 30 NW 18 30 29.87 1011 10 16 N/A
6:51 pm 18:51 Clear 57 13.9 31 -0.6 37 37 NW 12 19 29.89 1012 10 16 N/A
7:51 pm 19:51 Clear 54 12.2 31 -0.6 42 42 NW 17 28 29.91 1013 10 16 N/A
8:51 pm 20:51 Clear 52 11.1 30 -1.1 43 43 NW 15 24 29.92 1013 10 16 N/A
9:51 pm 21:51 Clear 50 10 31 -0.6 48 48 WNW 14 22 29.94 1014 10 16 N/A
10:51 pm 22:51 Clear 49 9.4 32 undefined 52 52 WNW 13 20 29.95 1014 10 16 N/A
11:51 pm 23:51 Clear 49 9.4 32 undefined 52 52 NNW 12 19 29.93 1014 10 16 N/A

Powered by AerisWeather